CanjetBLOCKVirtuelBLOCKQcBLOCKBLOCKBLOCKBLOCKBLOCKBLOCKBLOCKBLOCKBLOCKBLOCKBLOCKvolsBLOCKavecBLOCKFS-kACARS2020-07-02BLOCK03colon02pm

volsBLOCKBLOCKBLOCKBLOCKBLOCKpilotesBLOCKBLOCKBLOCKBLOCKBLOCKBLOCKBLOCKBLOCKtypeBLOCKBLOCKdepBLOCKBLOCKarrBLOCKBLOCKBLOCKBLOCKBLOCKaltBLOCKBLOCKBLOCKBLOCKBLOCKgsBLOCKBLOCKBLOCKBLOCKstatut

cja9999LouisBLOCKMB738KIDA-KMEM0ft0ktsarrived
cja9999ClaudeBLOCKLB738GVNP-CYOW36017ft457kts09colon37pm











BLOCKAppuyerBLOCKsurBLOCKF5BLOCKpourBLOCKactualiserBLOCKBLOCKBLOCKMiseBLOCKaBLOCKjourcolonBLOCK15colon02colon50pmCanjetBLOCKvirtuelBLOCKQC

Covid19

Publié par Michel Ayotte le 2020-05-11

Canjetvirtuel-Québec est fière des Anges Gardiens de la Santé ainsi que ceux des Services sociaux

 

Bravo à tous et merci 


Ça va bien aller!           

 

Vous trouverez votre place comme pilote chez nous!


Vols du mois Avril

Publié par Michel Ayotte le 2020-04-01

Canjetvirtuel-Québec est fière de ses 15 pilotes.

Ce mois-ci,(Avril) nous allons dépassé le record des vols depuis la fondation de la V.A. 

274 vols inscrits avec des profits de 8Millions

Bravo à tous et merci de faire partie de cette belle famille.

Ça va bien aller !           

 

Vous trouverez votre place comme pilote chez nous!


Microsoft flight sim 2020

Publié par Yvan Roy le 2019-06-25

 

Microsoft flight simulator 2020 encore plus fort sera disponible pour votre PC au début 2020 .

 

https://www.flightsimulator.com/
 

                                                   

 




                                                   

 




Bienvenue chez Canjetvirtuel-Q

Publié par Michel Ayotte le 2013-06-14

 

Canjetvirtuel-Québec est une compagnie aérienne virtuelle qui a été fondée par 2 passionnés de la simulation de vol.

Elle est opérée avec les Boeing 737. Exceptionnelement et pour votre plaisir les Boeing 747,757,767 et 777 sont autorisés pour des vols de plus de 1,5 heure.

Ces appareils pouvant faire des vols cargos ou des vols passagers,que ce soit au Canada, Europe, États-Unis, Mexique et Caraïbes.

Vous trouverez votre place comme pilote chez nous!



Avis

Aux fins de la simulation de vol seulement. CanjetVirtuel Québec n'est en aucun cas affilié avec n'importe quelle compagnie aérienne du monde réel. CanjetVirtuel Québec est un site à but non lucratif gérée par des amateurs de simulation de vol. Toutes les images sont la propriété exclusive de leurs propriétaires respectifs.
| propulsé par phpVMS, © 2013-2020.

Notice

For flight simulation purposes only. CanjetVirtuel Quebec is in no way affiliated with any real world airline. CanjetVirtuel Quebec is a non-profit site run by flight simulation enthusiasts. All images are the sole property of their respective owners.
| powered by phpVMS, © 2013-2020.

Affiliations

Vatsim

Les statistiques du site

Nombre de pilotes: 15
Total des vols effectués: 6372
Trajets disponibles: 574
Passagers transportés: 1729029
Total des heures de vol: 20826
Distance totale (NM): 8166095
Pilotes en ligne: 1

Nouvelles

Covid19
05/11/2020
Vols du mois Avril
04/01/2020
Microsoft flight sim 2020
06/25/2019
Bienvenue chez Canjetvirtuel-Q
06/14/2013

METAR

CYHZ 021800Z VRB11KT 15SM SCT039 SCT260 27/17 A2969 RMK CU3CI1 SLP054 DENSITY ALT 2300FT

CYQB 021800Z 08009KT 25SM BKN110 22/17 A2976 RMK AC7 SLP080 DENSITY ALT 1300FT

CYUL 021852Z 28008KT 15SM OVC120 28/20 A2975 RMK AC8 SLP074 DENSITY ALT 1800FT

CYYZ 021800Z 30011G20KT 15SM FEW068 SCT095 SCT250 34/16 A2990 RMK CU2AC2CI1 CI TR SLP124 DENSITY ALT 2900FT